• In Russia
  • List of Countries
  • For 7 days
  • Water Temperature
  • Satellite Maps
  • Weather Map
  • Weather Widgets
  • user-avatar
    Login

    Hourly Weather Bregenz

    Today, 23 January, Tuesday

    Time Temperature Precipitation Wind Pressure Humidity
    00:00 +1°C° 0.5 mm 2 mps 645 mmHg 97%
    01:00 +1°C° 0.5 mm 2 mps 646 mmHg 97%
    02:00 -1°C° 0.1 mm 2 mps 646 mmHg 97%
    03:00 -1°C° 0.1 mm 2 mps 647 mmHg 97%
    04:00 -2°C° 0.1 mm 2 mps 647 mmHg 96%
    05:00 -2°C° 0.1 mm 2 mps 647 mmHg 96%
    06:00 -3°C° 0.1 mm 2 mps 648 mmHg 96%
    07:00 -3°C° 0.1 mm 2 mps 648 mmHg 96%
    08:00 -1°C° 0 mm 1 mps 648 mmHg 95%
    09:00 0°C° 0 mm 1 mps 649 mmHg 95%
    10:00 0°C° 0 mm 1 mps 649 mmHg 94%
    11:00 +1°C° 0 mm 1 mps 650 mmHg 92%
    12:00 +2°C° 0 mm 1 mps 650 mmHg 91%
    13:00 +2°C° 0 mm 1 mps 650 mmHg 90%
    14:00 +2°C° 0 mm 1 mps 650 mmHg 89%
    15:00 +2°C° 0 mm 1 mps 650 mmHg 89%
    16:00 +2°C° 0 mm 1 mps 650 mmHg 88%
    17:00 +1°C° 0 mm 1 mps 650 mmHg 85%
    18:00 -3°C° 0 mm 2 mps 650 mmHg 82%
    19:00 -4°C° 0 mm 2 mps 650 mmHg 79%
    20:00 -3°C° 0 mm 2 mps 650 mmHg 77%
    21:00 -3°C° 0 mm 2 mps 650 mmHg 75%
    22:00 -3°C° 0 mm 2 mps 651 mmHg 72%
    23:00 -3°C° 0 mm 2 mps 651 mmHg 72%

    Tomorrow, 24 January, Wednesday

    Time Temperature Precipitation Wind Pressure Humidity
    00:00 -2°C° 0 mm 2 mps 651 mmHg 71%
    01:00 -2°C° 0 mm 2 mps 651 mmHg 71%
    02:00 -2°C° 0 mm 2 mps 651 mmHg 71%
    03:00 -2°C° 0 mm 2 mps 651 mmHg 70%
    04:00 -3°C° 0 mm 2 mps 650 mmHg 70%
    05:00 -3°C° 0 mm 2 mps 650 mmHg 71%
    06:00 -3°C° 0 mm 2 mps 650 mmHg 73%
    07:00 -3°C° 0 mm 2 mps 650 mmHg 74%
    08:00 -2°C° 0 mm 2 mps 650 mmHg 76%
    09:00 -1°C° 0 mm 2 mps 651 mmHg 77%
    10:00 +1°C° 0 mm 2 mps 651 mmHg 79%
    11:00 +3°C° 0 mm 1 mps 651 mmHg 81%
    12:00 +4°C° 0 mm 1 mps 650 mmHg 84%
    13:00 +5°C° 0 mm 1 mps 650 mmHg 86%
    14:00 +5°C° 0 mm 1 mps 650 mmHg 86%
    15:00 +5°C° 0 mm 1 mps 650 mmHg 85%
    16:00 +3°C° 0 mm 2 mps 649 mmHg 85%
    17:00 +2°C° 0 mm 2 mps 649 mmHg 82%
    18:00 +1°C° 0 mm 2 mps 649 mmHg 80%
    19:00 -1°C° 0 mm 3 mps 649 mmHg 78%
    20:00 -2°C° 0 mm 3 mps 649 mmHg 76%
    21:00 -2°C° 0 mm 3 mps 649 mmHg 75%
    22:00 -2°C° 0 mm 3 mps 648 mmHg 73%
    23:00 -2°C° 0 mm 3 mps 648 mmHg 72%

    Day after tomorrow, 25 January, Thursday

    Time Temperature Precipitation Wind Pressure Humidity
    00:00 -2°C° 0 mm 3 mps 648 mmHg 71%
    01:00 -2°C° 0 mm 3 mps 648 mmHg 71%
    02:00 -2°C° 0 mm 3 mps 648 mmHg 71%
    03:00 -2°C° 0 mm 3 mps 647 mmHg 71%
    04:00 -2°C° 0 mm 3 mps 647 mmHg 71%
    05:00 -2°C° 0 mm 3 mps 647 mmHg 71%
    06:00 -4°C° 0 mm 3 mps 647 mmHg 72%
    07:00 -4°C° 0 mm 3 mps 647 mmHg 72%
    08:00 -2°C° 0 mm 3 mps 646 mmHg 73%
    09:00 -1°C° 0 mm 3 mps 646 mmHg 74%
    10:00 0°C° 0 mm 3 mps 646 mmHg 74%
    11:00 +1°C° 0 mm 3 mps 646 mmHg 76%
    12:00 +1°C° 0 mm 3 mps 646 mmHg 77%
    13:00 +3°C° 0 mm 2 mps 646 mmHg 79%
    14:00 +3°C° 0 mm 2 mps 645 mmHg 79%
    15:00 +3°C° 0 mm 2 mps 645 mmHg 80%
    16:00 +3°C° 0 mm 2 mps 644 mmHg 81%
    17:00 +2°C° 0 mm 2 mps 644 mmHg 81%
    18:00 +1°C° 0 mm 2 mps 644 mmHg 81%
    19:00 -1°C° 0 mm 2 mps 644 mmHg 81%
    20:00 -1°C° 0 mm 2 mps 644 mmHg 81%
    21:00 -1°C° 0 mm 2 mps 644 mmHg 81%
    22:00 -1°C° 0 mm 2 mps 644 mmHg 81%
    23:00 -1°C° 0 mm 2 mps 643 mmHg 81%

    26 January, Friday

    Time Temperature Precipitation Wind Pressure Humidity
    00:00 -1°C° 0 mm 2 mps 643 mmHg 81%
    01:00 -2°C° 0 mm 2 mps 643 mmHg 81%
    02:00 -2°C° 0 mm 2 mps 642 mmHg 82%
    03:00 -2°C° 0 mm 2 mps 642 mmHg 83%
    04:00 -2°C° 0 mm 2 mps 642 mmHg 84%
    05:00 -2°C° 0 mm 2 mps 642 mmHg 84%
    06:00 -2°C° 0 mm 2 mps 641 mmHg 85%
    07:00 -2°C° 0 mm 2 mps 641 mmHg 86%
    08:00 -2°C° 0 mm 2 mps 642 mmHg 87%
    09:00 -1°C° 0 mm 2 mps 642 mmHg 87%
    10:00 -1°C° 0 mm 2 mps 642 mmHg 88%
    11:00 -1°C° 0.3 mm 2 mps 642 mmHg 90%
    12:00 -1°C° 0.3 mm 2 mps 643 mmHg 93%
    13:00 +1°C° 0.3 mm 2 mps 643 mmHg 95%
    14:00 -1°C° 1.5 mm 2 mps 643 mmHg 95%
    15:00 -1°C° 1.5 mm 2 mps 643 mmHg 95%
    16:00 -2°C° 1.5 mm 2 mps 643 mmHg 95%
    17:00 -2°C° 1.7 mm 2 mps 644 mmHg 96%
    18:00 -3°C° 1.7 mm 2 mps 644 mmHg 96%
    19:00 -1°C° 1.7 mm 1 mps 644 mmHg 97%
    20:00 -1°C° 1.1 mm 1 mps 645 mmHg 97%
    21:00 -2°C° 1.1 mm 1 mps 645 mmHg 97%
    22:00 -2°C° 1.1 mm 1 mps 646 mmHg 97%
    23:00 -2°C° 0.6 mm 1 mps 646 mmHg 97%

    27 January, Saturday

    Time Temperature Precipitation Wind Pressure Humidity
    00:00 -2°C° 0.6 mm 1 mps 646 mmHg 97%
    01:00 -2°C° 0.6 mm 1 mps 647 mmHg 97%
    02:00 -3°C° 0.4 mm 1 mps 647 mmHg 97%
    03:00 -3°C° 0.4 mm 1 mps 647 mmHg 97%
    04:00 -3°C° 0.4 mm 1 mps 647 mmHg 96%
    05:00 -3°C° 0.3 mm 1 mps 647 mmHg 96%
    06:00 -3°C° 0.3 mm 1 mps 647 mmHg 96%
    07:00 -3°C° 0.3 mm 1 mps 648 mmHg 96%
    08:00 -3°C° 0.1 mm 1 mps 648 mmHg 95%
    09:00 -2°C° 0.1 mm 1 mps 649 mmHg 94%
    10:00 -2°C° 0.1 mm 1 mps 649 mmHg 92%
    11:00 -1°C° 0 mm 1 mps 649 mmHg 91%
    12:00 -1°C° 0 mm 1 mps 650 mmHg 91%
    13:00 -2°C° 0 mm 2 mps 650 mmHg 90%
    14:00 0°C° 0 mm 1 mps 650 mmHg 90%
    15:00 0°C° 0 mm 1 mps 650 mmHg 90%
    16:00 0°C° 0 mm 1 mps 651 mmHg 90%
    17:00 -1°C° 0 mm 1 mps 651 mmHg 92%
    18:00 -2°C° 0 mm 1 mps 651 mmHg 93%
    19:00 -3°C° 0 mm 1 mps 652 mmHg 95%
    20:00 -4°C° 0 mm 1 mps 652 mmHg 92%
    21:00 -4°C° 0 mm 1 mps 652 mmHg 90%
    22:00 -4°C° 0 mm 1 mps 652 mmHg 88%
    23:00 -4°C° 0 mm 1 mps 652 mmHg 86%

    28 January, Sunday

    Time Temperature Precipitation Wind Pressure Humidity
    00:00 -4°C° 0 mm 1 mps 652 mmHg 84%
    01:00 -4°C° 0 mm 1 mps 653 mmHg 83%
    02:00 -4°C° 0 mm 1 mps 653 mmHg 82%
    03:00 -4°C° 0 mm 1 mps 653 mmHg 81%
    04:00 -4°C° 0 mm 1 mps 653 mmHg 81%
    05:00 -4°C° 0 mm 1 mps 653 mmHg 80%
    06:00 -4°C° 0 mm 1 mps 653 mmHg 80%
    07:00 -4°C° 0 mm 1 mps 653 mmHg 79%
    08:00 -3°C° 0 mm 1 mps 654 mmHg 79%
    09:00 -2°C° 0 mm 1 mps 655 mmHg 79%
    10:00 0°C° 0 mm 1 mps 655 mmHg 79%
    11:00 0°C° 0 mm 1 mps 655 mmHg 81%
    12:00 +1°C° 0 mm 1 mps 655 mmHg 84%
    13:00 +1°C° 0 mm 0 mps 655 mmHg 86%
    14:00 +1°C° 0 mm 0 mps 655 mmHg 86%
    15:00 +1°C° 0 mm 0 mps 655 mmHg 87%
    16:00 +1°C° 0 mm 0 mps 655 mmHg 87%
    17:00 -1°C° 0 mm 0 mps 655 mmHg 85%
    18:00 -1°C° 0 mm 1 mps 655 mmHg 82%
    19:00 -2°C° 0 mm 1 mps 655 mmHg 79%
    20:00 -2°C° 0 mm 1 mps 655 mmHg 77%
    21:00 -2°C° 0 mm 1 mps 655 mmHg 74%
    22:00 -2°C° 0 mm 1 mps 655 mmHg 72%
    23:00 -2°C° 0 mm 1 mps 655 mmHg 71%
    Show more